Weather History for Driggs, ID

Change the Weather History Date:

Wednesday, June 5, 2013

  Actual Average (KRXE) Record (KRXE)
Temperature  
Mean Temperature 50 °F 58 °F  
Max Temperature 68 °F 71 °F 88 °F (2000)
Min Temperature 32 °F 44 °F 34 °F (1982)
Degree Days  
Heating Degree Days 15 8  
Month to date heating degree days 41  
Since 1 June heating degree days 41  
Since 1 July heating degree days 7999  
Cooling Degree Days 0 0  
Month to date cooling degree days 0  
Year to date cooling degree days 4  
Since 1 June cooling degree days 0  
Moisture  
Dew Point 34 °F    
Average Humidity 52    
Maximum Humidity 85    
Minimum Humidity 25    
Precipitation  
Precipitation 0.00 in 0.06 in 1.32 in (1991)
Month to date precipitation 0.33  
Year to date precipitation 6.20  
Sea Level Pressure  
Sea Level Pressure 30.04 in    
Wind  
Wind Speed 5 mph (NNE)    
Max Wind Speed 15 mph    
Max Gust Speed 18 mph    
Visibility 10 miles    
Events      
T = Trace of Precipitation, MM = Missing Value Source: NWS Daily Summary

Daily Weather History Graph

Daily Weather History Graph

Search for Another Location

Airport:

Trip Planner

Search our weather history database for the weather conditions in past years. The results will help you decide how hot, cold, wet, or windy it might be!

Date:

Astronomy

Jun. 05, 2013 Rise Set
Actual Time 5:43 AM MDT 9:02 PM MDT
Civil Twilight 5:08 AM MDT 9:38 PM MDT
Nautical Twilight 4:22 AM MDT 10:24 PM MDT
Astronomical Twilight 3:25 AM MDT 11:21 PM MDT
Moon 3:54 AM MDT (6/5) 6:28 PM MDT (6/5)
Length of Visible Light 16h 30m
Length of Day
15h 19m
Waning Crescent, 8% of the Moon is Illuminated
Jun 5
Waning Crescent
Jun 8
New
Jun 16
First Quarter
Jun 23
Full
Jun 29
Last Quarter

Hourly Weather History & Observations

Time (MDT) Temp. Windchill Dew Point Humidity Pressure Visibility Wind Dir Wind Speed Gust Speed Precip Events Conditions
12:56 AM 37.9 °F 32.1 °F 32.0 °F 79% 30.09 in 10.0 mi East 8.1 mph - N/A   Clear
1:56 AM 37.9 °F - 31.1 °F 76% 30.08 in 10.0 mi Calm Calm - N/A   Clear
2:56 AM 34.9 °F 32.0 °F 30.0 °F 82% 30.09 in 10.0 mi North 3.5 mph - N/A   Clear
3:56 AM 32.0 °F 28.7 °F 28.0 °F 85% 30.09 in 10.0 mi ENE 3.5 mph - N/A   Clear
4:56 AM 34.0 °F 31.0 °F 30.0 °F 85% 30.09 in 10.0 mi NE 3.5 mph - N/A   Clear
5:56 AM 34.0 °F 29.8 °F 29.1 °F 82% 30.11 in 10.0 mi ESE 4.6 mph - N/A   Clear
6:56 AM 41.0 °F - 34.0 °F 76% 30.07 in 10.0 mi Calm Calm - N/A   Clear
7:56 AM 45.9 °F - 32.9 °F 61% 30.07 in 10.0 mi Calm Calm - N/A   Clear
8:56 AM 52.9 °F - 34.0 °F 49% 30.06 in 10.0 mi Calm Calm - N/A   Clear
9:56 AM 55.9 °F - 29.1 °F 36% 30.09 in 10.0 mi SSW 3.5 mph - N/A   Clear
10:56 AM 61.0 °F - 32.0 °F 34% 30.06 in 10.0 mi Variable 3.5 mph - N/A   Clear
11:56 AM 61.9 °F - 32.9 °F 34% 30.06 in 10.0 mi Variable 5.8 mph - N/A   Clear
12:56 PM 63.9 °F - 34.0 °F 33% 30.06 in 10.0 mi West 5.8 mph - N/A   Clear
1:56 PM 65.8 °F - 34.9 °F 32% 30.04 in 10.0 mi NW 8.1 mph - N/A   Clear
2:56 PM 68.9 °F - 34.9 °F 29% 30.03 in 10.0 mi Variable 5.8 mph - N/A   Partly Cloudy
3:56 PM 68.9 °F - 32.9 °F 26% 30.03 in 10.0 mi NW 10.4 mph - N/A   Clear
4:56 PM 68.9 °F - 32.0 °F 25% 30.01 in 10.0 mi NW 15.0 mph 18.4 mph N/A   Clear
5:56 PM 68.9 °F - 34.0 °F 28% 30.00 in 10.0 mi NNW 15.0 mph - N/A   Clear
6:56 PM 68.9 °F - 34.9 °F 29% 29.97 in 10.0 mi NNW 10.4 mph - N/A   Clear
7:56 PM 66.9 °F - 38.8 °F 36% 29.96 in 10.0 mi NNE 5.8 mph - N/A   Clear
8:56 PM 61.0 °F - 39.9 °F 46% 29.95 in 10.0 mi East 4.6 mph - N/A   Clear
9:56 PM 54.0 °F - 39.9 °F 59% 29.99 in 10.0 mi SE 5.8 mph - N/A   Clear
10:56 PM 48.9 °F - 36.9 °F 63% 29.99 in 10.0 mi East 8.1 mph - N/A   Clear
11:56 PM 50.0 °F - 37.9 °F 63% 29.98 in 10.0 mi Calm Calm - N/A   Clear